Regional Weather Roundup
Issued by NWS

Home | Current Version | Previous Version | Graphics & Text | Print | Product List | Glossary On
Versions: 1 2 3 4 5 6 7 8 9 10 11 12 13 14 15 16 17 18 19 20 21 22 23 24 25 26 27 28
000
ASUS45 KCYS 151210
RWRWY

WYOMING REGIONAL WEATHER ROUNDUP
NATIONAL WEATHER SERVICE CHEYENNE WY
600 AM MDT TUE AUG 15 2017

NOTE:  "FAIR" INDICATES FEW OR NO CLOUDS BELOW 12,000 FEET
WITH NO SIGNIFICANT WEATHER AND/OR OBSTRUCTIONS TO VISIBILITY.

WYZ001-151300-
YELLOWSTONE NATIONAL PARK

CITY           SKY/WX    TMP DP  RH WIND       PRES   REMARKS
LK YELLOWSTONE   N/A     41  41 100 CALM      30.11S
6HR MIN TEMP:  40; 6HR MAX TEMP:  45;

W YELLOWSTONE  NOT AVBL

$$
WYZ002>013-054>058-071-098>099-151300-
NORTHERN WYOMING

CITY           SKY/WX    TMP DP  RH WIND       PRES   REMARKS
JACKSON        FAIR      44  42  93 N6        30.05R
CODY           MOCLDY    56  48  74 CALM      29.96R
GREYBULL       LGT RAIN  59  56  89 W6        29.89S
6HR MIN TEMP:  59; 6HR MAX TEMP:  66; 6HR PCP:  0.01;

WORLAND        HVY RAIN  57  56  96 N5        29.92R FOG
6HR MIN TEMP:  57; 6HR MAX TEMP:  65; 6HR PCP:  0.08;

SHERIDAN       CLOUDY    59  55  87 NW8       29.90R
6HR MIN TEMP:  58; 6HR MAX TEMP:  60; 6HR PCP:  0.20;

BUFFALO        CLOUDY    58  50  75 W6        29.94R
6HR MIN TEMP:  57; 6HR MAX TEMP:  60;

GILLETTE       FAIR      58  57  97 CALM      29.88S
6HR MIN TEMP:  58; 6HR MAX TEMP:  62; 6HR PCP:  0.03;

HULETT         CLOUDY    59  54  82 CALM      29.92R
NEWCASTLE      CLOUDY    59  59 100 CALM      29.90F

$$
WYZ014>020-022>026-101>103-151300-
CENTRAL WYOMING

CITY           SKY/WX    TMP DP  RH WIND       PRES   REMARKS
BIG PINEY      CLOUDY    48  48 100 NW6       30.07R
6HR MIN TEMP:  48; 6HR MAX TEMP:  52; 6HR PCP:  0.13;

PINEDALE       CLOUDY    46  46 100 NW5       30.07R
DUBOIS         CLOUDY    46  39  76 W5        30.03R
LANDER           N/A    N/A N/A N/A MISG      29.97F
RIVERTON       LGT RAIN  54  54 100 NE3       29.95F
6HR MIN TEMP:  54; 6HR MAX TEMP:  58; 6HR PCP:  0.13;

CASPER         LGT RAIN  57  55  93 W5        29.96R
6HR MIN TEMP:  57; 6HR MAX TEMP:  60; 6HR PCP: TRACE;

DOUGLAS        MOCLDY    58  55  90 N6        29.91F
6HR MIN TEMP:  58; 6HR MAX TEMP:  62; 6HR PCP:  0.05;


$$
WYZ021-027>030-104>119-151300-
SOUTHERN WYOMING

CITY           SKY/WX    TMP DP  RH WIND       PRES   REMARKS
EVANSTON       FAIR      49  48  97 N3        30.06R
6HR MIN TEMP:  47; 6HR MAX TEMP:  51; 6HR PCP: TRACE;

KEMMERER         N/A     46  45  93 SE5       30.08R
ROCK SPRINGS   FAIR      50  47  89 CALM      30.05S
6HR MIN TEMP:  49; 6HR MAX TEMP:  55; 6HR PCP:  0.27;

RAWLINS        FAIR      52  47  83 CALM      30.04F
6HR MIN TEMP:  52; 6HR MAX TEMP:  56; 6HR PCP:  0.01;

SARATOGA       CLOUDY    52  52 100 NW3       30.07R
LARAMIE        FAIR      45  44  97 SE3       30.03F
6HR MIN TEMP:  45; 6HR MAX TEMP:  56; 6HR PCP: TRACE;

CHEYENNE       FAIR      52  47  83 W10       29.97S
6HR MIN TEMP:  52; 6HR MAX TEMP:  66; 6HR PCP: TRACE;

TORRINGTON     FAIR      59  58  96 NW7       29.87F
6HR MIN TEMP:  58; 6HR MAX TEMP:  65; 6HR PCP:  0.03;

PINE BLUFFS    FAIR      52  52 100 CALM      29.93S

$$




USA.gov is the U.S. government's official web portal to all federal, state and local government web resources and services.